Location: Unspecified
(0.0000°N, 0.0000°E)
Time: 04:32:25
(UTC+00:00)

Transit 2A - Pass Details

Date: 28 September 2023
Orbit: 600 x 953 km, 66.7° (Epoch: 06 December)

Event Time Altitude Azimuth Distance (km) Brightness Sun altitude
Rises 19:23:23 0° 299° (WNW) 2,835 9.9 -23.2°
Drops below altitude 10° 19:27:15 - 263° (W) 2,013 9.3 -24.1°
Maximum altitude 19:28:23 10° 248° (WSW) 1,968 9.1 -24.4°
Sets 19:33:33 0° 198° (SSW) 2,948 9.3 -25.7°
